This demonstration page uses our WeatherBlox Daily Observations layout. Learn more.

Left ArrowRight Arrow

30.00354, -91.81873

Hourly Observations for July 16, 2022

Temp ( °F °C ) Dew Point ( °F °C ) Humidity (%) Winds ( mph kmh ) Pressure ( in mb ) Visibility ( mi km ) Precip ( " mm )
12:53 am 00:53 Clear 76 24.4 74 23.3 94 94 SSE 3 6 30.04 1017 7 11 0.00 0.00
1:53 am 01:53 Clear 76 24.4 74 23.3 94 94 E 3 6 30.04 1017 10 16 0.00 0.00
2:53 am 02:53 Clear 75 23.9 74 23.3 96 96 Calm 30.02 1017 9 14 0.00 0.00
3:53 am 03:53 Clear 75 23.9 73 22.8 94 94 Calm 30.02 1017 7 11 0.00 0.00
4:01 am 04:01 Clear with Mist and Fog 75 23.9 73 22.8 94 94 Calm 30.02 1017 2 3 0.00 0.00
4:11 am 04:11 Clear with Mist and Fog 75 23.9 73 22.8 94 94 Calm 30.02 1017 3 5 0.00 0.00
4:29 am 04:29 Clear with Mist and Fog 75 23.9 73 22.8 94 94 Calm 30.02 1017 2 3 0.00 0.00
4:37 am 04:37 Mostly Cloudy with Mist and Fog 75 23.9 74 23.3 96 96 Calm 30.02 1017 1 1 0.00 0.00
4:45 am 04:45 Mostly Cloudy with Mist and Fog 75 23.9 73 22.8 94 94 Calm 30.02 1017 1 1 0.00 0.00
4:50 am 04:50 Mostly Clear with Mist and Fog 75 24 73 23 94 94 Calm 30.02 1017 2 3 0.00 0.00
4:53 am 04:53 Mostly Clear with Mist and Fog 75 23.9 73 22.8 94 94 Calm 30.02 1017 3 5 0.00 0.00
5:53 am 05:53 Clear 75 23.9 74 23.3 96 96 Calm 30.04 1017 10 16 0.00 0.00
6:53 am 06:53 Sunny 76 24.4 74 23.3 94 94 Calm 30.06 1018 10 16 0.00 0.00
7:53 am 07:53 Mostly Sunny 81 27.2 76 24.4 85 85 N 3 6 30.07 1018 10 16 0.00 0.00
8:53 am 08:53 Sunny 84 28.9 77 25 80 80 N 5 7 30.08 1019 10 16 0.00 0.00
9:53 am 09:53 Partly Cloudy 86 30 76 24.4 72 72 Calm 30.07 1018 10 16 0.00 0.00
10:53 am 10:53 Mostly Sunny 86 30 72 22.2 63 63 VRB 3 6 30.06 1018 10 16 0.00 0.00
11:53 am 11:53 Mostly Sunny 90 32.2 73 22.8 58 58 NW 5 7 30.05 1018 10 16 0.00 0.00
12:53 pm 12:53 Partly Cloudy 91 32.8 73 22.8 56 56 NNW 3 6 30.04 1017 10 16 0.00 0.00
1:53 pm 13:53 Sunny 92 33.3 73 22.8 54 54 VRB 3 6 30.01 1016 10 16 0.00 0.00
3:53 pm 15:53 Sunny 94 34.4 72 22.2 49 49 VRB 6 9 29.97 1015 10 16 0.00 0.00
4:53 pm 16:53 Sunny 92 33.3 72 22.2 52 52 NNW 5 7 29.97 1015 10 16 0.00 0.00
5:34 pm 17:34 Sunny with Nearby Thunderstorms 94 34.4 70 21.1 46 46 W 3 6 29.96 1014 10 16 0.00 0.00
5:53 pm 17:53 Partly Cloudy with Nearby Thunderstorms 94 34.4 71 21.7 48 48 VRB 6 9 29.95 1014 10 16 0.00 0.00
6:20 pm 18:20 Partly Cloudy 91 32.8 76 24.4 61 61 S 10 17 29.96 1014 10 16 0.00 0.00
6:53 pm 18:53 Sunny 87 30.6 73 22.8 63 63 SSE 10 17 29.95 1014 10 16 0.00 0.00
7:53 pm 19:53 Mostly Sunny 86 30 76 24.4 72 72 undefined N/A 29.95 1014 N/A 0.00 0.00
8:53 pm 20:53 undefined 83 28.3 75 23.9 77 77 undefined N/A 29.96 1015 N/A 0.00 0.00
9:53 pm 21:53 undefined 79 26.1 73 22.8 82 82 SE 6 9 29.98 1015 N/A 0.00 0.00
10:53 pm 22:53 undefined 78 25.6 73 22.8 85 85 Calm 29.98 1015 N/A 0.00 0.00
11:53 pm 23:53 undefined N/A N/A N/A SE 3 6 29.99 1016 N/A 0.00 0.00

Powered by AerisWeather